Portada
METAR-TAF:

METAR-TAF

Aeroports :

Greater Kankakee Airport

Kankakee, Illinois, Estats Units d'Amèrica

latitud: 41-04-17N, longitud: 087-50-47W, altitud: 192 m

Observació

L'informe es va fer fa 25 minuts, a les 09:15 UTC
Vent calma
Temperatura 1°C
Humitat 80%
Pressió 1019 hPa
Visibilitat: 16.1 km
Cel clar

METAR: KIKK 220915Z AUTO 00000KT 10SM CLR 01/M02 A3009 RMK AO2 T00131025

Hora: 04:40 (09:40 UTC)


TAF: manca

Observacions i pronòstics meteorològics de més de 4000 aeroports (METAR i TAF).

Les estacions disponibles són els punts grocs i vermells al mapa.

Posi el ratolí al punt desitjat per veure el nom de l'estació.

Feu clic per veure les observacions i els pronòstics meteorològics.

Per canviar el mapa: feu clic els botons verds amb una creu de color negre per apropar; al botó verd amb un guió per allunyar la imatge; o en les fletxes verdes per a mapes adjacents.


METAR-TAF: